Orbital Elements at Epoch 2459000.5 (2020-May-31.0) TDB
Reference: JPL 15 (heliocentric ecliptic J2000)
Element | Value | Uncertainty (1-sigma) | Units |
e | .1774503567536503 | 4.8825e-08 | |
a | 2.251600841192338 | 1.159e-08 | au |
q | 1.852053468655939 | 1.0781e-07 | au |
i | 3.159477791423407 | 6.7649e-06 | deg |
node | 345.3351323901263 | 8.3552e-05 | deg |
peri | 320.9374068099728 | 8.563e-05 | deg |
M | 215.6841674796284 | 1.8485e-05 | deg |
tp | 2459495.205807268742 (2021-Oct-07.70580727) | 6.4773e-05 | TDB |
period | 1234.057881983306 3.38 | 9.5282e-06 2.609e-08 | d yr |
n | .2917205142934049 | 2.2524e-09 | deg/d |
Q | 2.651148213728738 | 1.3646e-08 | au |
|
| | Orbit Determination Parameters
Additional Information
|